Weather Roundup
Issued by NWS Springfield, MO

Home | Current Version | Previous Version | Text Only | Print | Product List | Glossary On
Versions: 1 2 3 4 5 6 7 8 9 10 11 12 13 14 15 16 17 18 19 20 21 22 23 24 25 26 27 28 29 30 31 32 33 34 35 36 37 38 39 40 41 42 43 44 45 46 47 48 49 50
000
NZUS99 KSGF 210357
HRRSGF

HOURLY WEATHER
NATIONAL WEATHER SERVICE SPRINGFIELD MO
1100 PM CDT THU JUL 20 2017

......SGF CWA......

CITY           SKY/WX    TMP DP  RH WIND       PRES   REMARKS
SPRINGFIELD    CLEAR     81  72  74 S6        30.04R
JOPLIN         CLEAR     82  75  79 S8        30.01S
WEST PLAINS    CLEAR     83  73  72 S5        30.06S
ROLLA          CLEAR     79  71  76 S8        30.00S

......SURROUNDING SGF CWA......

CITY           SKY/WX    TMP DP  RH WIND       PRES   REMARKS
CHANUTE        CLEAR     84  73  69 S10       29.98F HX  90
PARSONS        CLEAR     84  72  67 S5        29.99S
COFFEYVILLE    CLEAR     83  73  72 SE7       29.98S
EMPORIA        CLEAR     84  71  65 S13       29.96S
HARRISON AR    CLEAR     81  70  69 CALM      30.08R

......KANSAS AND MISSOURI......

CITY           SKY/WX    TMP DP  RH WIND       PRES   REMARKS
KANSAS CTY INT CLEAR     83  74  74 S10       29.95S
ST JOSEPH      CLOUDY    84  77  79 S7        29.92F HX  94
ST LOUIS       CLEAR     91  73  55 CALM      29.97S HX  99
WICHITA        CLEAR     87  69  54 S15       29.95R HX  91
TOPEKA         CLEAR     87  75  67 S10       29.94R HX  96
OLATHE         CLEAR     82  75  79 S6        29.97R

......TENNESSEE......

CITY           SKY/WX    TMP DP  RH WIND       PRES   REMARKS
MEMPHIS        NOT AVBL
NASHVILLE      PTCLDY    81  72  74 CALM      30.05S

......ARKANSAS.......

CITY           SKY/WX    TMP DP  RH WIND       PRES   REMARKS
FAYETTEVILLE   CLEAR     76  75  97 S3        30.07R
FT SMITH       MOCLDY    85  76  74 CALM      30.01R HX  94
LITTLE ROCK    CLEAR     83  79  88 S6        30.03R HX  94

......OKLAHOMA.......

CITY           SKY/WX    TMP DP  RH WIND       PRES   REMARKS
TULSA          CLEAR     88  72  58 S10       29.97S HX  94
PONCA CITY     CLEAR     88  69  53 S17G25    29.96R HX  92
MCALESTER      CLEAR     84  74  71 SE5       30.03R HX  91
OKLAHOMA CITY  CLEAR     84  69  60 S13       30.00R

......IOWA............

CITY           SKY/WX    TMP DP  RH WIND       PRES   REMARKS
DES MOINES     NOT AVBL
QUAD CITIES    TSTM      73  68  84 E15       29.93F

......ILLINOIS........

CITY           SKY/WX    TMP DP  RH WIND       PRES   REMARKS
QUINCY         NOT AVBL
CHICAGO        PTCLDY    76  69  79 CALM      29.97S



USA.gov is the U.S. government's official web portal to all federal, state and local government web resources and services.